Location: Palomar Mountain Lodge
(33.3110°N, 116.8495°W)
Time: 14:22:31
(UTC-08:00)

NOSS 3-4 (A) - Pass Details

Date: 19 May 2017
Orbit: 951 x 1261 km, 63.4° (Epoch: 16 December)

Event Time Altitude Azimuth Distance (km) Brightness Sun altitude
Rises 20:01:07 0° 199° (SSW) 3,617 6.4 -4.1°
Reaches altitude 10° 20:03:41 10° 196° (SSW) 2,664 5.7 -4.6°
Maximum altitude 20:09:45 62° 116° (ESE) 1,062 3.5 -5.7°
Drops below altitude 10° 20:15:59 10° 37° (NE) 2,727 5.8 -6.8°
Sets 20:18:38 0° 34° (NE) 3,709 6.5 -7.3°
